Regional Weather Roundup
Issued by NWS Northern Indiana

Home | Current Version | Previous Version | Graphics & Text | Print | Product List | Glossary On
Versions: 1 2 3 4 5 6 7 8 9 10 11 12 13 14 15 16 17 18 19 20 21 22 23 24 25 26 27 28 29 30 31 32 33 34 35 36 37 38 39 40 41 42 43 44 45 46 47 48 49 50
000
ASUS43 KIWX 011610
RWRIWX

KIWX WEATHER ROUNDUP
NATIONAL WEATHER SERVICE NORTHERN INDIANA
1200 PM EDT MON SEP 01 2014

NOTE: "FAIR" INDICATES FEW OR NO CLOUDS BELOW 12,000 FEET WITH NO
SIGNIFICANT WEATHER AND/OR OBSTRUCTIONS TO VISIBILITY.

* THESE STATIONS ARE NOT UNDER NWS QUALITY CONTROL. THEY ALSO MAY NOT
  REPORT WEATHER SUCH AS PRECIPITATION OR FOG.

INZ001>027-011700-
NORTHERN INDIANA

CITY           SKY/WX    TMP DP  RH WIND       PRES   REMARKS
GARY*          CLOUDY    77  72  83 S14G25    29.77S FOG
VALPARAISO     CLOUDY    74  71  91 S14G21    29.81R
MICHIGAN CITY* CLOUDY    73  70  88 S12G24    29.79S
LAPORTE*       CLOUDY    73  73  97 SW9G16    29.82R FOG
KNOX*          CLOUDY    75  69  83 S12G17    29.82R
SOUTH BEND     CLOUDY    76  70  82 S17G24    29.82S
ELKHART*       CLOUDY    75  72  88 S14G20    29.82F
GOSHEN         CLOUDY    80  70  71 S18G25    29.83F
MONTICELLO*    CLOUDY    76  72  86 S12G18    29.84R
LOGANSPORT*    CLOUDY    77  68  73 S20G25    29.86S
ROCHESTER*     CLOUDY    79  72  78 SW13      29.85S
WARSAW*        CLOUDY    77  70  78 SW6       29.84F
ANGOLA*        CLOUDY    77  72  83 S10       29.85F
FORT WAYNE     PTSUNNY   80  71  74 S16       29.87F
HUNTINGTON*    CLOUDY    79  72  79 SW10G16   29.86F
PERU/GRISSOM   PTSUNNY   78  74  87 S18G24    29.85F
MARION*        CLOUDY    79  69  72 S18       29.89S

$$
INZ028>050-011700-
CENTRAL INDIANA

CITY           SKY/WX    TMP DP  RH WIND       PRES   REMARKS
LAFAYETTE      CLOUDY    76  71  85 S13G21    29.85R
KOKOMO*        CLOUDY    79  72  78 S17G23    29.86F
MUNCIE*        PTSUNNY   80  70  71 S10G24    29.90F
INDIANAPOLIS   PTSUNNY   80  71  74 S17G25    29.88F

$$
MIZ043>046-050>051-056>058-064>065-071>073-077>080-011700-
SOUTHWEST LOWER MICHIGAN

CITY           SKY/WX    TMP DP  RH WIND       PRES   REMARKS
BATTLE CREEK   PTSUNNY   78  71  79 S15       29.81F
BENTON HARBOR  CLOUDY    75  71  87 S12G22    29.77S
COLDWATER*     CLOUDY    78  72  80 S12G18    29.84F
HILLSDALE*     CLOUDY    77  74  90 S9G16     29.87F FOG
HOLLAND        CLOUDY    77  72  84 S14G23    29.78R
GRAND RAPIDS   PTSUNNY   79  74  84 S18       29.76F
KALAMAZOO      CLOUDY    78  70  76 S20G25    29.80F
STURGIS*         N/A     77  72  83 S18       29.83F
THREE RIVERS*  CLOUDY    78  72  82 S12       29.82F

$$
OHZ001>008-015>018-024>025-011700-
NORTHWEST OHIO

CITY           SKY/WX    TMP DP  RH WIND       PRES   REMARKS
WAUSEON*       PTSUNNY   81  72  74 SW15      29.89F
DEFIANCE       CLOUDY    80  70  71 S12       29.88F
FINDLAY        PTSUNNY   82  71  69 SW16G22   29.91F
TOLEDO EXPRESS PTSUNNY   79  70  74 S16G22    29.89F
TOLEDO METCALF PTSUNNY   80  69  69 S16G22    29.90F
LIMA           PTSUNNY   81  71  71 S13       29.93F

$$
&&



USA.gov is the U.S. government's official web portal to all federal, state and local government web resources and services.